User: anonymous   Login
Location: Caltech
(34.1382°N, 118.1253°W)
Time: 16:58:50
(UTC-07:00)
Language:

FENGYUN 3A - Orbit

View from above orbital plane
View from above orbital plane
View from above satellite
View from above satellite

Ground track
Ground track

The orbit data is extracted from the following two-line orbital elements,

1 32958U 08026A   16176.38607369 -.00000004  00000-0  17593-4 0  9990
2 32958  98.4514 216.1081 0008547 235.2351 124.8023 14.19621875418573
Epoch (UTC): 24 June 2016 09:15:56
Eccentricity: 0.0008547
inclination: 98.4514°
perigee height: 820 km
apogee height: 833 km
right ascension of ascending node: 216.1081°
argument of perigee: 235.2351°
revolutions per day: 14.19621875
mean anomaly at epoch: 124.8023°
orbit number at epoch: 41857

The dashed part of the orbit path shows where the satellite is in the earth's shadow,  

DLR